This is the latest recevied weather packets stored in our database for station/object W2EH. If no packets are shown the sender has not sent any weather packets the latest 10 day(s).
| Time | Temp. | Humidity | Pressure | Rain* | Wind** | Luminosity | Snow |
|---|---|---|---|---|---|---|---|
| 1777501727 | 17.78° C | 89% | 1010.5 hPa | 0 mm | - | 23 W/m² | - |
| 1777501425 | 17.78° C | 89% | 1010.6 hPa | 0 mm | - | 18 W/m² | - |
| 1777501122 | 17.78° C | 89% | 1010.4 hPa | 0 mm | - | 27 W/m² | - |
| 1777500820 | 17.78° C | 89% | 1010.4 hPa | 0 mm | - | 42 W/m² | - |
| 1777500517 | 17.78° C | 90% | 1010.3 hPa | 0 mm | - | 42 W/m² | - |
| 1777500213 | 17.78° C | 90% | 1010.4 hPa | 0 mm | - | 65 W/m² | - |
| 1777499910 | 17.78° C | 89% | 1010 hPa | 0 mm | - | 37 W/m² | - |
| 1777499606 | 17.78° C | 89% | 1010.2 hPa | 0 mm | - | 40 W/m² | - |
| 1777499303 | 17.78° C | 89% | 1010.2 hPa | 0 mm | - | 40 W/m² | - |
| 1777499001 | 17.78° C | 89% | 1010.4 hPa | 0 mm | - | 45 W/m² | - |
| 1777498697 | 17.78° C | 88% | 1010.3 hPa | 0 mm | - | 35 W/m² | - |
| 1777498394 | 17.78° C | 89% | 1010.3 hPa | 0 mm | - | 63 W/m² | - |
| 1777498091 | 17.78° C | 89% | 1010.2 hPa | 0 mm | - | 66 W/m² | - |
| 1777497788 | 17.78° C | 90% | 1009.9 hPa | 0 mm | - | 120 W/m² | - |
| 1777497484 | 17.78° C | 90% | 1010.4 hPa | 0 mm | - | 51 W/m² | - |
| 1777497181 | 17.78° C | 90% | 1010.5 hPa | 0 mm | - | 71 W/m² | - |
| 1777496877 | 17.78° C | 90% | 1010.5 hPa | 0 mm | - | 76 W/m² | - |
| 1777496574 | 17.78° C | 91% | 1010.3 hPa | 0 mm | - | 59 W/m² | - |
| 1777496270 | 17.78° C | 91% | 1010.2 hPa | 0 mm | - | 112 W/m² | - |
| 1777495966 | 17.78° C | 91% | 1010.2 hPa | 0 mm | - | 91 W/m² | - |
| 1777495662 | 17.78° C | 91% | 1010.3 hPa | 0 mm | - | 117 W/m² | - |
| 1777495359 | 17.78° C | 92% | 1010.7 hPa | 0 mm | - | 80 W/m² | - |
| 1777495056 | 17.78° C | 92% | 1010.8 hPa | 0 mm | - | 139 W/m² | - |
| 1777494753 | 17.78° C | 93% | 1011.1 hPa | 0 mm | - | 69 W/m² | - |
| 1777494450 | 17.78° C | 92% | 1011.4 hPa | 0 mm | - | 47 W/m² | - |
* Rain latest hour (hover to see other rain measurements)
** Current wind speed in m/s (hover to see current wind gust speed)